Wild Boar Gully, Santa Catalina Island Weather observations

Data are for 10 minute period ending at time listed.
 Day   Time   Solar   Ave.   Ave.  Ave.  Vector    Max.   Stn.    Total
  of    of     Rad.   Air    Rel.  Wind   Wind     Wind   Baro.  Precip.
Year   Day            Temp.  Hum.  Speed  Dir.     Gust   Pres.         
2016   (PST)   W/m2    F      %     mph   deg.      mph    mb.     in.  
------------------------------------------------------------------------
 240    4:20    0.0    62   82.2     6    283.1    11.3    999.0   0.00  
 240    4:30    0.0    62   81.8     6    269.5    10.8    999.0   0.00  
 240    4:40    0.0    62   81.9     6    266.7     9.6    999.0   0.00  
 240    4:50    0.0    62   81.9     5    301.9     9.0    999.0   0.00  
 240    5:00    0.0    62   81.8     5    293.2    10.2    999.0   0.00  
 240    5:10    0.0    62   81.8     5    317.4     7.2    999.0   0.00  
 240    5:20    0.0    62   82.0     4    320.5     5.4    999.0   0.00  
 240    5:30    0.0    62   81.7     5    275.6     6.6    999.0   0.00  
 240    5:40    4.0    62   81.6     4    309.8     7.2    999.0   0.00  
 240    5:50    9.0    62   81.4     4    299.3     7.2    999.0   0.00  
 240    6:00   15.0    62   81.4     4    285.2     6.0    999.0   0.00  
 240    6:10   23.0    62   80.9     4    316.3     7.2    999.0   0.00  
 240    6:20   29.0    62   80.8     6    331.5     8.4    999.0   0.00  
 240    6:30   38.0    62   80.3     6    327.3     7.8    999.0   0.00  
 240    6:40   59.0    62   79.9     5    315.2     8.4    999.0   0.00  
 240    6:50   68.0    63   79.2     5    352.1     7.8    999.0   0.00  
 240    7:00  105.0    63   78.6     4    331.9     7.2    999.0   0.00  
 240    7:10  109.0    64   78.4     5    302.4     9.0    999.0   0.00  
 240    7:20  111.0    64   78.0     5    295.4     9.0    999.0   0.00  
 240    7:30  147.0    64   77.9     5    274.3     9.0    999.0   0.00  
 240    7:40  151.0    64   77.6     6    274.0     9.6    999.0   0.00  
 240    7:50  154.0    64   77.2     4    298.9     8.4    999.0   0.00  
 240    8:00  166.0    64   76.8     4    271.7     8.4    999.0   0.00  
 240    8:10  274.0    66   75.0     4    183.6     6.6    999.0   0.00  
 240    8:20  304.0    66   74.0     4    236.9     9.0    999.0   0.00  
 240    8:30  295.0    66   75.0     5    229.8     8.4    999.0   0.00  
 240    8:40  414.0    68   71.5     5    220.8    10.8    999.0   0.00  
 240    8:50  463.0    66   73.8     6    229.4     9.6    999.0   0.00  
 240    9:00  610.0    67   72.0     7    230.0    10.2    999.0   0.00  
 240    9:10  576.0    67   72.1     7    227.2    10.8    999.0   0.00  
 240    9:20  613.0    67   71.1     7    230.8    11.3    999.0   0.00  
 240    9:30  593.0    67   73.7     8    236.0    11.9    999.0   0.00  
 240    9:40  626.0    67   74.0     8    234.4    13.1    999.0   0.00  
 240    9:50  551.0    67   75.0     8    234.2    13.1    999.0   0.00  
 240   10:00  487.0    67   75.8     9    236.2    13.7    999.0   0.00  
 240   10:10  434.0    67   75.4     8    234.5    11.3    999.0   0.00  
 240   10:20  328.0    66   76.7     8    232.2    13.1    999.0   0.00  
 240   10:30  326.0    66   75.9     7    231.3     9.6    999.0   0.00  
 240   10:40  433.0    66   75.4     8    241.1    11.3    999.0   0.00  
 240   10:50  679.0    67   74.6     8    240.1    11.9    999.0   0.00  
 240   11:00  456.0    67   74.8     8    241.1    11.3    999.0   0.00  
 240   11:10  418.0    67   75.2     7    240.6    10.2    999.0   0.00  
 240   11:20  410.0    66   75.6     7    235.7    10.2    999.0   0.00  
 240   11:30  574.0    67   74.4     6    229.8    10.8    999.0   0.00  
 240   11:40  629.0    68   73.5     7    230.7    12.5    999.0   0.00  
 240   11:50  477.0    67   74.4     8    235.9    11.9    999.0   0.00  
 240   12:00  485.0    66   75.9     9    240.5    12.5    999.0   0.00  
 240   12:10  524.0    67   75.2     8    235.2    12.5    999.0   0.00  
 240   12:20  670.0    67   74.2     8    231.3    13.1    999.0   0.00  
 240   12:30  568.0    67   74.4     9    234.4    13.7    999.0   0.00  
 240   12:40  693.0    67   74.8    10    235.3    16.7    999.0   0.00  
 240   12:50  716.0    67   74.8    12    236.2    19.7    999.0   0.00  
 240   13:00  709.0    67   74.4    13    234.8    21.5    999.0   0.00  
 240   13:10  701.0    69   70.9    11    249.2    18.5    999.0   0.00  
 240   13:20  690.0    68   73.1    13    234.7    22.1    999.0   0.00  
 240   13:30  679.0    68   75.3    13    232.9    19.7    999.0   0.00  
 240   13:40  672.0    68   75.3    14    234.5    20.3    999.0   0.00  
 240   13:50  645.0    68   75.4    12    241.1    20.9    999.0   0.00  
 240   14:00  604.0    68   75.4    13    243.0    25.6    999.0   0.00  
 240   14:10  630.0    68   76.7    14    235.3    23.9    999.0   0.00  
 240   14:20  611.0    68   76.3    14    248.7    22.1    999.0   0.00  
 240   14:30  580.0    68   76.7    14    249.6    23.3    999.0   0.00  
 240   14:40  518.0    68   76.9    13    252.2    21.5    999.0   0.00  
 240   14:50  518.0    68   76.8    13    259.5    19.7    999.0   0.00  
 240   15:00  420.0    67   78.5    14    256.8    22.7    999.0   0.00  
 240   15:10  468.0    67   78.2    14    261.1    20.9    999.0   0.00  
 240   15:20  415.0    67   78.7    13    268.0    19.7    999.0   0.00  
 240   15:30  441.0    67   78.9    13    263.1    20.9    999.0   0.00  
 240   15:40  435.0    67   77.3    13    263.9    20.3    999.0   0.00  
 240   15:50  404.0    67   78.6    14    269.8    19.7    999.0   0.00  
 240   16:00  380.0    67   78.5    16    268.7    22.1    999.0   0.00  
 240   16:10  349.0    66   80.3    18    268.7    21.5    999.0   0.00  
 240   16:20  317.0    66   79.9    16    266.6    22.7    999.0   0.00  
 240   16:30  288.0    66   80.6    17    269.5    21.5    999.0   0.00  
 240   16:40  260.0    66   81.3    16    270.4    21.5    999.0   0.00  
 240   16:50  233.0    65   81.4    16    272.1    20.9    999.0   0.00  
 240   17:00  203.0    65   82.3    17    269.7    22.1    999.0   0.00  
 240   17:10  170.0    65   83.5    16    272.0    20.9    999.0   0.00  
 240   17:20  141.0    65   83.1    15    272.6    20.9    999.0   0.00  
 240   17:30   98.0    64   83.6    15    279.1    19.7    999.0   0.00  
 240   17:40   67.0    64   84.5    13    275.2    19.1    999.0   0.00  
 240   17:50   29.0    64   85.3    12    292.5    16.1    999.0   0.00  
 240   18:00   28.0    64   86.3    13    300.7    17.3    999.0   0.00  
 240   18:10   20.0    63   87.0    13    295.9    19.1    999.0   0.00  
 240   18:20    9.0    63   87.6    13    292.2    18.5    999.0   0.00  
 240   18:30    5.0    63   87.7    12    303.5    16.7    999.0   0.00  
 240   18:40    0.0    63   88.0    11    305.8    17.9    999.0   0.00  
 240   18:50    0.0    63   87.8    12    295.4    15.5    999.0   0.00  
 240   19:00    0.0    63   88.0    12    297.6    16.7    999.0   0.00  
 240   19:10    0.0    63   88.0     9    309.5    14.9    999.0   0.00  
 240   19:20    0.0    63   88.4     7    316.3    12.5    999.0   0.00  
 240   19:30    0.0    63   88.6     8    332.6    11.9    999.0   0.00  
 240   19:40    0.0    63   88.6     8      7.1    15.5    999.0   0.00  
 240   19:50    0.0    63   88.7     8     19.5    14.9    999.0   0.00  
 240   20:00    0.0    63   88.9     8     25.8    12.5    999.0   0.00  
 240   20:10    0.0    63   89.2    10     32.5    16.7    999.0   0.00  
 240   20:20    0.0    63   89.2     9     32.5    14.9    999.0   0.00  
 240   20:30    0.0    63   89.2     7     28.3    11.3    999.0   0.00  
 240   20:40    0.0    63   89.9     9     27.3    13.7    999.0   0.00  
 240   20:50    0.0    63   90.0    10     29.5    14.3    999.0   0.00  
 240   21:00    0.0    63   90.2    10     30.7    15.5    999.0   0.00  
 240   21:10    0.0    63   90.2     8     32.3    11.9    999.0   0.00  
 240   21:20    0.0    63   90.3    10     35.4    13.7    999.0   0.00  
 240   21:30    0.0    63   90.4    11     33.9    15.5    999.0   0.00  
 240   21:40    0.0    63   90.6    10     33.0    13.1    999.0   0.00  
 240   21:50    0.0    63   91.1     9     22.2    13.1    999.0   0.00  
 240   22:00    0.0    62   91.1     8     31.4    11.9    999.0   0.00  
 240   22:10    0.0    62   90.9     4     25.5     6.6    999.0   0.00  
 240   22:20    0.0    62   90.3     3     37.4     7.8    999.0   0.00  
 240   22:30    0.0    62   90.2     3     22.1     6.0    999.0   0.00  
 240   22:40    0.0    62   90.4     1    124.5     2.4    999.0   0.00  
 240   22:50    0.0    62   91.1     2     26.4     5.4    999.0   0.00  
 240   23:00    0.0    62   91.7     3     23.3     5.4    999.0   0.00  
 240   23:10    0.0    62   92.0     3     35.8     7.2    999.0   0.00  
 240   23:20    0.0    62   92.3     5     23.8     9.0    999.0   0.00  
 240   23:30    0.0    61   92.3     2    271.9     6.6    999.0   0.00  
 240   23:40    0.0    62   92.7     2     84.4     6.0    999.0   0.00  
 240   23:50    0.0    62   92.9     4    274.4    10.2    999.0   0.00  
 241    0:00    0.0    61   92.7     4    272.5     5.4    999.0   0.00  
 241    0:10    0.0    61   92.7     5    279.2     8.4    999.0   0.00  
 241    0:20    0.0    61   92.6     3    282.1    10.2    999.0   0.00  
 241    0:30    0.0    61   92.9     3     49.5     6.6    999.0   0.00  
 241    0:40    0.0    61   92.9     4     27.3     9.6    999.0   0.00  
 241    0:50    0.0    62   92.8     8     33.8    11.9    999.0   0.00  
 241    1:00    0.0    62   92.4     8     26.7    11.3    999.0   0.00  
 241    1:10    0.0    62   91.9     6     47.6     9.6    999.0   0.00  
 241    1:20    0.0    62   91.1     6     45.1     8.4    999.0   0.00  
 241    1:30    0.0    62   91.1     4     30.9     7.8    999.0   0.00  
 241    1:40    0.0    61   91.1     2     47.8     3.6    999.0   0.00  
 241    1:50    0.0    62   91.3     2     51.2     6.0    999.0   0.00  
 241    2:00    0.0    62   90.6     1     38.8     2.4    999.0   0.00  
 241    2:10    0.0    62   90.6     2     86.4     4.2    999.0   0.00  
 241    2:20    0.0    61   91.2     3     96.4     4.8    999.0   0.00  
 241    2:30    0.0    61   92.1     3     90.5     5.4    999.0   0.00  
 241    2:40    0.0    61   91.8     4     75.0     5.4    999.0   0.00  
 241    2:50    0.0    61   91.8     4     47.3     7.8    999.0   0.00  
 241    3:00    0.0    61   92.7     7     23.7     9.6    999.0   0.00  
 241    3:10    0.0    60   93.3     6     30.0     9.6    999.0   0.00  
 241    3:20    0.0    60   93.6     6     36.3     8.4    999.0   0.00  
 241    3:30    0.0    61   94.0     6     38.4    10.2    999.0   0.00  
 241    3:40    0.0    60   94.0     6     39.8    10.2    999.0   0.00  
 241    3:50    0.0    60   94.2     5     29.0     9.0    999.0   0.00  
 241    4:00    0.0    60   94.3     3     67.5     4.8    999.0   0.00  
 241    4:10    0.0    61   93.9     4     83.3     6.6    999.0   0.00  

Return to Wild Boar Gully graphs page.


Western Regional Climate Center,wrcc@dri.edu